Location: McFarlands Corners
(41.4117°N, 81.3382°W)
Time: 13:09:31
(UTC+00:00)

Tiros 1 despin weight - Pass Details

Date: 18 February 2026
Orbit: 556 x 593 km, 48.2° (Epoch: 11 March)

Event Time Altitude Azimuth Distance (km) Brightness Sun altitude
Rises 02:52:55 0° 293° (WNW) 2,736 ? -43.1°
Enters shadow 02:53:45 - 290° (WNW) 2,421 ? -43.2°
Reaches altitude 10° 02:55:20 10° 283° (WNW) 1,842 - -43.5°
Maximum altitude 02:59:05 32° 220° (SW) 978 - -44.1°
Drops below altitude 10° 03:02:50 10° 157° (SSE) 1,848 - -44.7°
Sets 03:05:15 0° 147° (SSE) 2,748 - -45.1°
